GW3962 Weather Reports


Display with metric or nautical units.
time (UTC)temp
F
wind
direction
speed
MPH
gust
MPH
rain 1hr
in
rain 24hr
in
rain mn
in
humidity
%
barometer
mb
20260506070941 74 206 11.0 13.0 0.00 0.00 0.00 91 1008.9
20260506070438 74 203 12.0 14.0 0.00 0.00 0.00 91 1008.9
20260506062416 74 204 16.0 17.0 0.00 0.00 0.00 91 1008.8
20260506061911 74 210 11.0 13.0 0.00 0.00 0.00 91 1008.7
20260506061408 74 218 12.0 17.0 0.00 0.00 0.00 91 1008.9
20260506060906 75 198 9.0 13.0 0.00 0.00 0.00 91 1009.3
20260506060404 75 210 8.0 11.0 0.00 0.00 0.00 91 1008.8
20260506051336 75 231 9.0 11.0 0.00 0.00 0.00 92 1009.0
20260506050833 75 244 8.0 9.0 0.00 0.00 0.00 91 1009.1
20260506050330 75 200 6.0 7.0 0.00 0.00 0.00 91 1008.9
20260506044821 75 179 7.0 9.0 0.00 0.00 0.00 91 1009.1
20260506044319 75 235 6.0 9.0 0.00 0.00 0.00 91 1008.9
20260506043815 75 243 9.0 11.0 0.00 0.00 0.00 91 1008.8
20260506043313 75 193 11.0 13.0 0.00 0.00 0.00 91 1009.3
20260506042811 75 189 7.0 9.0 0.00 0.00 0.00 91 1008.9
20260506042310 75 198 8.0 11.0 0.00 0.00 0.00 91 1008.8
20260506041808 75 194 6.0 7.0 0.00 0.00 0.00 91 1009.0
20260506041305 75 182 11.0 13.0 0.00 0.00 0.00 91 1008.8
20260506040802 75 184 7.0 9.0 0.00 0.00 0.00 90 1009.0
20260506040259 75 203 5.0 5.0 0.00 0.00 0.00 90 1008.9
20260506035756 75 251 5.0 6.0 0.00 0.00 0.00 90 1008.9
20260506035253 76 229 9.0 10.0 0.00 0.00 0.00 90 1008.8
20260506034750 76 221 9.0 11.0 0.00 0.00 0.00 89 1008.6
20260506034247 76 194 5.0 7.0 0.00 0.00 0.00 89 1008.7
20260506033744 76 198 9.0 10.0 0.00 0.00 0.00 89 1008.3
20260506033241 76 175 7.0 9.0 0.00 0.00 0.00 88 1008.5
20260506032738 77 201 8.0 8.0 0.00 0.00 0.00 87 1008.5
20260506032235 77 220 6.0 8.0 0.00 0.00 0.00 87 1008.5
20260506031726 77 184 6.0 9.0 0.00 0.00 0.00 86 1008.4
20260506031224 77 185 3.0 3.0 0.00 0.00 0.00 86 1008.4
20260506030722 77 210 7.0 8.0 0.00 0.00 0.00 86 1008.2
20260506030219 77 205 4.0 5.0 0.00 0.00 0.00 85 1008.2
20260506025716 77 218 4.0 6.0 0.00 0.00 0.00 85 1008.1
20260506025212 77 230 5.0 6.0 0.00 0.00 0.00 85 1008.0
20260506024709 77 259 2.0 2.0 0.00 0.00 0.00 84 1007.9
20260506024205 78 215 5.0 6.0 0.00 0.00 0.00 84 1008.0
20260506023702 78 199 6.0 7.0 0.00 0.00 0.00 83 1008.0
20260506023200 78 216 5.0 6.0 0.00 0.00 0.00 83 1007.8
20260506022656 78 202 3.0 3.0 0.00 0.00 0.00 83 1007.8
20260506022154 78 207 5.0 7.0 0.00 0.00 0.00 83 1007.6
20260506021652 78 179 4.0 5.0 0.00 0.00 0.00 83 1007.2
20260506021148 78 216 8.0 9.0 0.00 0.00 0.00 82 1007.5
20260506020645 78 208 6.0 6.0 0.00 0.00 0.00 82 1007.1
20260506020143 78 210 5.0 6.0 0.00 0.00 0.00 82 1007.2
20260506015640 78 197 4.0 5.0 0.00 0.00 0.00 82 1007.0
20260506015137 79 188 4.0 6.0 0.00 0.00 0.00 82 1006.9
20260506014635 79 194 7.0 9.0 0.00 0.00 0.00 81 1006.9
20260506014131 79 209 4.0 5.0 0.00 0.00 0.00 81 1007.0
20260506013629 79 178 6.0 8.0 0.00 0.00 0.00 81 1006.8
20260506013125 79 176 5.0 6.0 0.00 0.00 0.00 80 1006.9
20260506012621 79 205 4.0 5.0 0.00 0.00 0.00 80 1006.9
20260506012117 79 176 6.0 7.0 0.00 0.00 0.00 80 1006.7
20260506011615 79 187 7.0 8.0 0.00 0.00 0.00 79 1007.0
20260506011111 80 205 5.0 6.0 0.00 0.00 0.00 79 1006.8
20260506010605 80 219 6.0 8.0 0.00 0.00 0.00 78 1006.7
20260506005559 80 217 6.0 7.0 0.00 0.00 0.00 78 1006.9
20260506005055 80 195 9.0 9.0 0.00 0.00 0.00 77 1006.9
20260506004552 80 202 8.0 10.0 0.00 0.00 0.00 77 1006.9
20260506004049 81 187 9.0 13.0 0.00 0.00 0.00 76 1006.9
20260506003545 81 181 6.0 7.0 0.00 0.00 0.00 76 1006.7
20260506003041 81 197 5.0 6.0 0.00 0.00 0.00 76 1007.1
20260506002537 81 196 7.0 8.0 0.00 0.00 0.00 75 1006.9
20260506002033 81 208 7.0 8.0 0.00 0.00 0.00 75 1007.0
20260506001529 81 230 8.0 9.0 0.00 0.00 0.00 75 1007.2
20260506001022 81 189 8.0 9.0 0.00 0.00 0.00 74 1007.2
20260506000519 81 166 7.0 9.0 0.00 0.00 0.00 74 1007.0
20260506000016 81 192 6.0 7.0 0.00 0.00 0.00 75 1006.9
20260505235515 81 198 7.0 8.0 0.00 0.00 0.00 74 1006.8
20260505235011 81 184 9.0 11.0 0.00 0.00 0.00 74 1007.0
20260505234508 81 264 7.0 9.0 0.00 0.00 0.00 74 1006.8
20260505234005 81 199 9.0 13.0 0.00 0.00 0.00 74 1006.6
20260505233502 81 230 12.0 17.0 0.00 0.00 0.00 74 1006.6
20260505233000 82 217 8.0 11.0 0.00 0.00 0.00 74 1006.8
20260505232458 81 210 10.0 13.0 0.00 0.00 0.00 74 1006.6
20260505231954 81 225 11.0 13.0 0.00 0.00 0.00 74 1006.4
20260505231451 82 210 11.0 13.0 0.00 0.00 0.00 74 1006.3
20260505230950 82 224 11.0 14.0 0.00 0.00 0.00 73 1006.6
20260505230447 82 184 9.0 10.0 0.00 0.00 0.00 73 1006.3
20260505225943 82 198 11.0 13.0 0.00 0.00 0.00 72 1006.2
20260505225441 82 228 9.0 10.0 0.00 0.00 0.00 72 1006.1
20260505224936 82 272 9.0 11.0 0.00 0.00 0.00 72 1006.2
20260505224433 82 194 8.0 11.0 0.00 0.00 0.00 72 1006.4
20260505223931 82 220 10.0 11.0 0.00 0.00 0.00 71 1006.3
20260505223427 83 223 12.0 14.0 0.00 0.00 0.00 70 1006.1
20260505222924 83 221 13.0 14.0 0.00 0.00 0.00 70 1006.3
20260505222420 83 239 9.0 13.0 0.00 0.00 0.00 71 1006.4
20260505221916 83 187 12.0 15.0 0.00 0.00 0.00 70 1006.0
20260505221414 83 193 11.0 14.0 0.00 0.00 0.00 70 1006.1
20260505220911 83 194 8.0 10.0 0.00 0.00 0.00 71 1006.2
20260505220407 82 224 8.0 11.0 0.00 0.00 0.00 72 1006.3
20260505215905 83 249 11.0 15.0 0.00 0.00 0.00 70 1006.3
20260505215403 83 219 9.0 9.0 0.00 0.00 0.00 71 1006.2
20260505214901 83 179 10.0 13.0 0.00 0.00 0.00 71 1006.4
20260505214358 83 234 10.0 11.0 0.00 0.00 0.00 71 1006.4
20260505213855 83 213 9.0 10.0 0.00 0.00 0.00 71 1006.4
20260505213353 83 251 5.0 6.0 0.00 0.00 0.00 72 1006.6
20260505212849 84 223 12.0 14.0 0.00 0.00 0.00 70 1006.8
20260505212346 83 186 9.0 10.0 0.00 0.00 0.00 70 1006.9
20260505211842 84 203 8.0 10.0 0.00 0.00 0.00 71 1006.9
20260505211340 83 202 7.0 9.0 0.00 0.00 0.00 70 1006.9
20260505210836 84 233 9.0 11.0 0.00 0.00 0.00 70 1007.0
20260505210333 84 190 8.0 9.0 0.00 0.00 0.00 70 1007.0
20260505205830 83 205 13.0 15.0 0.00 0.00 0.00 71 1007.2
20260505205328 84 229 9.0 11.0 0.00 0.00 0.00 70 1007.0
20260505204824 84 199 11.0 13.0 0.00 0.00 0.00 69 1007.2
20260505204323 84 210 11.0 15.0 0.00 0.00 0.00 69 1007.1
20260505203820 83 178 4.0 6.0 0.00 0.00 0.00 70 1007.2
20260505203316 83 173 14.0 16.0 0.00 0.00 0.00 71 1007.3
20260505202813 83 201 9.0 11.0 0.00 0.00 0.00 71 1007.0
20260505202309 82 221 8.0 9.0 0.00 0.00 0.00 72 1007.2
20260505201806 82 212 12.0 14.0 0.00 0.00 0.00 71 1007.4
20260505201303 82 213 13.0 16.0 0.00 0.00 0.00 71 1007.6
20260505200801 83 230 9.0 11.0 0.00 0.00 0.00 70 1007.6
20260505200258 82 195 10.0 11.0 0.00 0.00 0.00 71 1007.6
20260505195753 82 197 14.0 20.0 0.00 0.00 0.00 71 1007.6
20260505195251 82 191 8.0 10.0 0.00 0.00 0.00 72 1007.7
20260505194748 82 173 9.0 13.0 0.00 0.00 0.00 72 1008.0
20260505194245 81 246 5.0 7.0 0.00 0.00 0.00 72 1007.9
20260505193740 81 198 11.0 13.0 0.00 0.00 0.00 72 1008.1
20260505193238 81 233 12.0 14.0 0.00 0.00 0.00 72 1008.2
20260505192736 80 214 12.0 14.0 0.00 0.00 0.00 73 1008.1
20260505192234 80 205 13.0 17.0 0.00 0.00 0.00 74 1008.2
20260505191732 80 191 11.0 13.0 0.00 0.00 0.00 74 1008.0
20260505191230 81 214 13.0 18.0 0.00 0.00 0.00 74 1007.9
20260505190726 80 173 9.0 11.0 0.00 0.00 0.00 75 1008.0
20260505190225 80 212 15.0 20.0 0.00 0.00 0.00 74 1008.2
20260505185722 79 199 14.0 15.0 0.00 0.00 0.00 75 1008.3
20260505185219 80 295 3.0 6.0 0.00 0.00 0.00 76 1008.6
20260505184715 79 267 8.0 10.0 0.00 0.00 0.00 75 1008.5
20260505184212 79 238 3.0 6.0 0.00 0.00 0.00 77 1008.6
20260505183709 78 237 7.0 8.0 0.00 0.00 0.00 78 1008.8
20260505183207 78 238 8.0 9.0 0.00 0.00 0.00 78 1008.6
20260505182702 79 223 5.0 7.0 0.00 0.00 0.00 78 1009.0
20260505182200 78 216 8.0 9.0 0.00 0.00 0.00 78 1008.8
20260505181656 78 233 10.0 11.0 0.00 0.00 0.00 79 1008.8
20260505181154 78 206 11.0 14.0 0.00 0.00 0.00 78 1008.9
20260505180650 78 196 5.0 8.0 0.00 0.00 0.00 79 1008.9
20260505180147 76 235 9.0 11.0 0.00 0.00 0.00 81 1008.9
20260505175643 77 214 9.0 13.0 0.00 0.00 0.00 80 1009.0
20260505175139 76 214 6.0 8.0 0.00 0.00 0.00 82 1009.1
20260505174636 76 188 10.0 14.0 0.00 0.00 0.00 82 1009.2
20260505174132 76 278 5.0 7.0 0.00 0.00 0.00 82 1009.2
20260505173629 75 234 12.0 15.0 0.00 0.00 0.00 83 1009.2
20260505173126 75 249 7.0 9.0 0.00 0.00 0.00 84 1009.4
20260505172624 75 269 5.0 7.0 0.00 0.00 0.00 85 1009.5
20260505172120 74 245 8.0 11.0 0.00 0.00 0.00 84 1009.4
20260505171615 74 219 9.0 10.0 0.00 0.00 0.00 85 1009.3
20260505171112 74 200 10.0 13.0 0.00 0.00 0.00 85 1009.4
20260505170609 74 198 10.0 11.0 0.00 0.00 0.00 86 1009.5
20260505170106 73 219 7.0 8.0 0.00 0.00 0.00 86 1009.4
20260505165601 73 216 9.0 10.0 0.00 0.00 0.00 86 1009.3
20260505165057 74 210 13.0 15.0 0.00 0.00 0.00 86 1009.4
20260505164552 73 210 8.0 9.0 0.00 0.00 0.00 87 1009.4
20260505164050 73 214 9.0 10.0 0.00 0.00 0.00 88 1009.5
20260505163548 73 208 6.0 9.0 0.00 0.00 0.00 88 1009.4
20260505163045 72 218 7.0 9.0 0.00 0.00 0.00 89 1009.6
20260505162538 72 266 5.0 6.0 0.00 0.00 0.00 89 1009.6
20260505162036 72 210 6.0 8.0 0.00 0.00 0.00 89 1010.0
20260505161532 71 239 5.0 6.0 0.00 0.00 0.00 90 1009.3
20260505161029 72 221 8.0 13.0 0.00 0.00 0.00 90 1009.4
20260505160527 71 238 7.0 9.0 0.00 0.00 0.00 90 1009.2
20260505153003 71 233 8.0 10.0 0.00 0.00 0.00 91 1009.4
20260505152455 71 197 9.0 13.0 0.00 0.00 0.00 91 1009.4
20260505151950 71 224 5.0 7.0 0.00 0.00 0.00 91 1009.5
20260505151446 71 263 7.0 9.0 0.00 0.00 0.00 91 1009.5
20260505150943 70 226 11.0 13.0 0.00 0.00 0.00 91 1009.2
20260505150440 70 219 9.0 11.0 0.00 0.00 0.00 92 1009.4
20260505140410 70 221 14.0 17.0 0.00 0.00 0.00 92 1008.8
20260505124818 69 227 8.0 10.0 0.00 0.00 0.00 92 1007.8
20260505124314 69 208 8.0 9.0 0.00 0.00 0.00 92 1008.1
20260505123804 69 219 9.0 10.0 0.00 0.00 0.00 92 1007.9
20260505123301 69 223 14.0 16.0 0.00 0.00 0.00 92 1008.1
20260505122757 69 207 14.0 15.0 0.00 0.00 0.00 92 1007.8
20260505122255 69 253 10.0 11.0 0.00 0.00 0.00 92 1007.8
20260505121751 69 183 11.0 15.0 0.00 0.00 0.00 92 1007.9
20260505121248 69 212 12.0 16.0 0.00 0.00 0.00 92 1007.9
20260505120744 69 238 11.0 13.0 0.00 0.00 0.00 92 1007.5
20260505120241 69 189 11.0 13.0 0.00 0.00 0.00 92 1007.4
20260505115739 69 210 13.0 17.0 0.00 0.00 0.00 93 1007.6
20260505115237 69 234 12.0 15.0 0.00 0.00 0.00 93 1007.4
20260505114734 69 216 9.0 11.0 0.00 0.00 0.00 93 1007.3
20260505114230 69 210 9.0 9.0 0.00 0.00 0.00 93 1007.2
20260505113727 69 217 11.0 13.0 0.00 0.00 0.00 93 1007.3
20260505113224 69 194 10.0 11.0 0.00 0.00 0.00 93 1007.3
20260505112720 69 227 9.0 10.0 0.00 0.00 0.00 93 1007.5
20260505112218 69 212 9.0 14.0 0.00 0.00 0.00 93 1007.6
20260505111718 69 185 9.0 10.0 0.00 0.00 0.00 93 1007.7
20260505111214 69 216 13.0 16.0 0.00 0.00 0.00 93 1007.4
20260505110709 69 194 11.0 15.0 0.00 0.00 0.00 92 1007.2
20260505110207 69 205 10.0 13.0 0.00 0.00 0.00 92 1007.4
20260505102143 69 217 10.0 11.0 0.00 0.00 0.00 91 1007.7
20260505101642 69 215 6.0 8.0 0.00 0.00 0.00 91 1007.7
20260505101137 69 196 9.0 10.0 0.00 0.00 0.00 91 1007.5
20260505100633 69 226 7.0 9.0 0.00 0.00 0.00 91 1007.8
20260505100131 69 210 11.0 14.0 0.00 0.00 0.00 91 1007.8
20260505095627 69 223 10.0 11.0 0.00 0.00 0.00 91 1007.7
20260505095124 69 195 9.0 11.0 0.00 0.00 0.00 91 1007.7
20260505094620 69 203 10.0 13.0 0.00 0.00 0.00 91 1007.7
20260505094116 69 198 11.0 13.0 0.00 0.00 0.00 91 1007.9
20260505093613 69 220 10.0 13.0 0.00 0.00 0.00 92 1007.8
20260505093110 69 213 10.0 11.0 0.00 0.00 0.00 92 1007.7
20260505092607 69 185 11.0 11.0 0.00 0.00 0.00 92 1007.9
20260505092106 69 215 11.0 13.0 0.00 0.00 0.00 92 1007.9
20260505091602 69 215 6.0 7.0 0.00 0.00 0.00 92 1007.7
20260505091101 69 215 12.0 13.0 0.00 0.00 0.00 91 1007.7
20260505090558 69 240 10.0 14.0 0.00 0.00 0.00 91 1007.9
20260505090056 69 217 8.0 11.0 0.00 0.00 0.00 91 1007.9
20260505085553 69 245 12.0 15.0 0.00 0.00 0.00 91 1008.1
20260505085051 69 254 8.0 8.0 0.00 0.00 0.00 91 1007.9
20260505084549 69 226 11.0 14.0 0.00 0.00 0.00 91 1008.0
20260505084047 69 202 12.0 16.0 0.00 0.00 0.00 91 1008.0
20260505083544 69 215 13.0 16.0 0.00 0.00 0.00 91 1008.1
20260505083040 69 169 13.0 17.0 0.00 0.00 0.00 91 1008.1
20260505082536 69 244 13.0 14.0 0.00 0.00 0.00 90 1008.1
20260505082033 69 253 10.0 13.0 0.00 0.00 0.00 90 1008.2
20260505081530 69 235 10.0 11.0 0.00 0.00 0.00 90 1008.2
20260505081027 69 212 11.0 13.0 0.00 0.00 0.00 90 1008.4
20260505080523 69 219 15.0 16.0 0.00 0.00 0.00 90 1008.4
20260505080020 69 180 14.0 16.0 0.00 0.00 0.00 90 1008.4
20260505075516 69 230 10.0 13.0 0.00 0.00 0.00 90 1008.4
20260505075013 69 227 14.0 18.0 0.00 0.00 0.00 90 1008.3
20260505074510 69 206 14.0 16.0 0.00 0.00 0.00 90 1008.5
20260505074007 69 227 10.0 13.0 0.00 0.00 0.00 90 1008.8
20260505073504 69 237 13.0 15.0 0.00 0.00 0.00 90 1008.7
20260505073003 69 208 12.0 15.0 0.00 0.00 0.00 90 1008.6
20260505072458 69 202 14.0 17.0 0.00 0.00 0.00 90 1008.7
20260505071954 69 206 9.0 11.0 0.00 0.00 0.00 90 1008.6
20260505071450 69 192 11.0 13.0 0.00 0.00 0.00 90 1008.9